Вернуться в каталог

STARLINK-37116

АктивенСвязьSSO
NORAD 68213·PAYLOAD·🇺🇸 United States

Запущен Mar 17, 2026 с Vandenberg Space Force Base

Loading…

Ближайшие Пролёты (ближайшие 24 часа)

TLE

СвежийSource: CelesTrak SupGP

Эпоха: Sep 15, 2026, 03:08 UTC

1 68213C 26053G   26258.13104167  .00038480  00000+0  11942-2 0  2581
2 68213  97.2846 131.9430 0001889  95.7479  57.8805 15.33426376    10

Отслеживайте STARLINK-37116 в реальном времени с AllMySat

Download on the App Store